CW7200 Weather Reports


time (UTC)temp
C
wind
direction
speed
KPH
gust
KPH
rain 1hr
cm
rain 24hr
cm
rain mn
cm
humidity
%
barometer
mb
20260506165404 16 269 6.4 22.5 0.00 0.00 0.00 76 1008.5
20260506164504 17 268 4.8 16.1 0.00 0.00 0.00 75 1008.6
20260506163603 17 274 6.4 14.5 0.00 0.00 0.00 74 1008.5
20260506162703 17 270 3.2 12.9 0.00 0.00 0.00 73 1008.7
20260506161803 17 271 6.4 12.9 0.00 0.00 0.00 73 1008.8
20260506161119 17 261 3.2 11.3 0.00 0.00 0.00 73 1009.0
20260506160004 17 276 6.4 29.0 0.00 0.00 0.00 72 1008.9
20260506155403 17 280 6.4 16.1 0.00 0.00 0.00 73 1008.9
20260506154504 17 271 8.0 20.9 0.00 0.00 0.00 72 1009.1
20260506153603 17 263 4.8 16.1 0.00 0.00 0.00 72 1009.1
20260506152703 17 251 6.4 32.2 0.00 0.00 0.00 72 1009.0
20260506151803 17 256 8.0 19.3 0.00 0.00 0.00 71 1009.0
20260506150904 17 280 6.4 20.9 0.00 0.00 0.00 71 1009.0
20260506150222 17 269 8.0 20.9 0.00 0.00 0.00 72 1009.1
20260506145403 17 264 9.7 33.8 0.00 0.00 0.00 71 1009.1
20260506144504 17 258 3.2 33.8 0.00 0.00 0.00 71 1009.2
20260506143603 17 265 1.6 6.4 0.00 0.00 0.00 72 1009.0
20260506142703 17 278 4.8 20.9 0.00 0.00 0.00 71 1009.2
20260506142018 17 308 1.6 8.0 0.00 0.00 0.00 72 1009.3
20260506140904 17 309 1.6 8.0 0.00 0.00 0.00 73 1009.4
20260506140004 17 313 3.2 11.3 0.00 0.00 0.00 71 1009.3
20260506135404 17 284 8.0 20.9 0.00 0.00 0.00 71 1009.4
20260506134504 17 274 6.4 22.5 0.00 0.00 0.00 72 1009.5
20260506133603 17 242 4.8 14.5 0.00 0.00 0.00 71 1009.6
20260506132704 17 265 4.8 14.5 0.00 0.00 0.00 72 1009.7
20260506132019 17 239 3.2 14.5 0.00 0.00 0.00 72 1009.7
20260506130904 17 201 4.8 20.9 0.00 0.00 0.00 71 1009.8
20260506130005 17 197 4.8 20.9 0.00 0.00 0.00 71 1009.9
20260506125620 17 243 3.2 17.7 0.00 0.00 0.00 71 1009.9
20260506124718 17 187 6.4 17.7 0.00 0.00 0.00 72 1010.0
20260506123603 17 183 6.4 20.9 0.00 0.00 0.00 71 1010.1
20260506122917 17 210 4.8 19.3 0.00 0.00 0.00 71 1010.0
20260506121804 17 164 1.6 14.5 0.00 0.00 0.00 71 1010.1
20260506121117 17 163 3.2 14.5 0.00 0.00 0.00 70 1010.0
20260506120004 17 156 4.8 16.1 0.00 0.00 0.00 70 1010.2
20260506115404 17 158 4.8 17.7 0.00 0.00 0.00 70 1010.1
20260506114504 17 161 9.7 19.3 0.00 0.00 0.00 71 1010.2
20260506113603 17 157 8.0 30.6 0.00 0.00 0.00 70 1010.2
20260506112703 17 160 11.3 30.6 0.00 0.00 0.00 70 1010.2
20260506111804 17 158 11.3 24.1 0.00 0.00 0.00 69 1010.3
20260506110904 18 164 8.0 25.7 0.00 0.00 0.00 68 1010.4
20260506110220 19 193 4.8 12.9 0.00 0.00 0.00 70 1010.4
20260506105403 18 230 6.4 14.5 0.00 0.00 0.00 66 1010.4
20260506104504 18 218 6.4 17.7 0.00 0.00 0.00 69 1010.5
20260506103603 17 195 9.7 24.1 0.00 0.00 0.00 73 1010.7
20260506102703 18 218 6.4 24.1 0.00 0.00 0.00 71 1010.7
20260506101804 18 215 8.0 24.1 0.00 0.00 0.00 70 1010.7
20260506100904 18 262 9.7 20.9 0.00 0.00 0.00 72 1010.7
20260506100004 18 269 9.7 20.9 0.00 0.00 0.00 73 1010.8
20260506095403 17 267 8.0 16.1 0.00 0.00 0.00 73 1010.7
20260506094504 18 277 8.0 17.7 0.00 0.00 0.00 72 1010.7
20260506093603 18 268 8.0 17.7 0.00 0.00 0.00 71 1010.6
20260506092704 18 285 6.4 19.3 0.00 0.00 0.00 70 1010.6
20260506091804 18 295 8.0 20.9 0.00 0.00 0.00 71 1010.5
20260506090904 18 286 8.0 19.3 0.00 0.00 0.00 72 1010.5
20260506090004 18 273 8.0 16.1 0.00 0.00 0.00 71 1010.4
20260506085404 18 267 9.7 19.3 0.00 0.00 0.00 71 1010.5
20260506084504 18 278 11.3 22.5 0.00 0.00 0.00 72 1010.4
20260506083603 17 275 11.3 25.7 0.00 0.00 0.00 74 1010.5
20260506082704 17 278 9.7 25.7 0.00 0.00 0.00 74 1010.5
20260506081804 17 285 8.0 22.5 0.00 0.00 0.00 74 1010.6
20260506080904 17 280 8.0 22.5 0.00 0.00 0.00 75 1010.6
20260506072703 16 184 8.0 22.5 0.00 0.00 0.00 75 1010.8
20260506071803 17 208 3.2 14.5 0.00 0.00 0.00 75 1010.6
20260506071120 17 177 4.8 16.1 0.00 0.00 0.00 74 1010.6
20260506070217 17 209 6.4 14.5 0.00 0.00 0.00 74 1010.5
20260506061804 16 308 1.6 8.0 0.00 0.00 0.00 77 1010.4
20260506060903 16 315 1.6 11.3 0.00 0.00 0.00 78 1010.4
20260506060218 15 287 0.0 3.2 0.00 0.00 0.00 80 1010.5
20260506050904 15 286 4.8 11.3 0.00 0.00 0.00 80 1010.3
20260506044717 15 268 8.0 19.3 0.00 0.00 0.00 80 1010.2
20260506043820 14 265 9.7 19.3 0.00 0.00 0.00 80 1010.2
20260506042917 14 266 9.7 22.5 0.00 0.00 0.00 81 1010.2
20260506041804 14 274 3.2 20.9 0.00 0.00 0.00 82 1010.3
20260506040904 13 265 1.6 14.5 0.00 0.00 0.00 82 1010.2
20260506040004 13 276 3.2 9.7 0.00 0.00 0.00 83 1010.2
20260506035403 13 273 1.6 11.3 0.00 0.00 0.00 83 1010.2
20260506034504 13 266 0.0 11.3 0.00 0.00 0.00 82 1010.1
20260506033603 13 275 3.2 11.3 0.00 0.00 0.00 82 1010.0
20260506032703 14 277 4.8 14.5 0.00 0.00 0.00 81 1010.1
20260506031804 14 271 9.7 17.7 0.00 0.00 0.00 81 1010.1
20260506030903 14 260 12.9 22.5 0.00 0.00 0.00 81 1010.1
20260506030004 14 260 11.3 22.5 0.00 0.00 0.00 81 1010.2
20260506025403 14 270 9.7 19.3 0.00 0.00 0.00 81 1010.4
20260506024719 14 271 8.0 16.1 0.00 0.00 0.00 82 1010.5
20260506023603 14 272 4.8 12.9 0.00 0.00 0.00 81 1010.7
20260506022919 14 281 3.2 11.3 0.00 0.00 0.00 81 1010.6
20260506021804 14 247 8.0 24.1 0.00 0.00 0.00 80 1010.6
20260506021118 14 248 4.8 24.1 0.00 0.00 0.00 81 1010.5
20260506020004 14 269 4.8 16.1 0.00 0.00 0.00 81 1010.6
20260506015404 14 261 6.4 16.1 0.00 0.00 0.00 81 1010.6
20260506014504 14 254 4.8 24.1 0.00 0.00 0.00 80 1010.4
20260506013603 14 212 4.8 19.3 0.00 0.00 0.00 80 1010.4
20260506012703 14 247 4.8 20.9 0.00 0.00 0.00 80 1010.4
20260506011804 14 264 3.2 11.3 0.00 0.00 0.00 80 1010.3
20260506010903 14 266 0.0 11.3 0.00 0.00 0.00 81 1010.3
20260506010004 14 262 3.2 9.7 0.00 0.00 0.00 80 1010.3
20260506005403 14 275 4.8 16.1 0.00 0.00 0.00 80 1010.3
20260506004504 14 271 6.4 14.5 0.00 0.00 0.00 80 1010.4
20260506003603 14 250 9.7 19.3 0.00 0.00 0.00 79 1010.4
20260506002704 14 232 9.7 20.9 0.00 0.00 0.00 79 1010.2
20260506001804 14 216 11.3 20.9 0.00 0.00 0.00 80 1010.1
20260506000903 14 229 12.9 30.6 0.00 0.00 0.00 80 1010.0
20260506000222 14 250 11.3 25.7 0.00 0.00 0.00 80 1010.2
20260505235403 14 258 14.5 32.2 0.00 0.00 0.00 79 1010.3
20260505234504 14 266 19.3 32.2 0.00 0.00 0.00 79 1010.2
20260505233603 14 250 12.9 25.7 0.00 0.00 0.00 79 1010.2
20260505232704 14 251 17.7 38.6 0.00 0.00 0.00 79 1010.1
20260505231803 14 262 22.5 32.2 0.00 0.00 0.00 79 1010.4
20260505230904 14 265 19.3 38.6 0.00 0.00 0.00 79 1010.2
20260505230004 14 272 20.9 43.5 0.00 0.00 0.00 79 1010.2
20260505225619 14 272 20.9 43.5 0.00 0.00 0.00 79 1010.1
20260505224503 14 273 19.3 37.0 0.00 0.00 0.00 79 1010.1
20260505223819 14 270 19.3 35.4 0.00 0.00 0.00 80 1009.9
20260505222921 14 273 19.3 35.4 0.00 0.00 0.00 80 1009.9
20260505221803 14 263 19.3 30.6 0.00 0.00 0.00 80 1010.0
20260505220903 14 262 19.3 32.2 0.00 0.00 0.00 79 1010.1
20260505220233 14 260 17.7 29.0 0.00 0.00 0.00 79 1010.2
20260505215404 14 259 14.5 24.1 0.00 0.00 0.00 79 1010.3
20260505214503 14 281 12.9 32.2 0.00 0.00 0.00 79 1010.5
20260505213603 15 277 12.9 32.2 0.00 0.00 0.00 80 1010.7
20260505212704 14 280 8.0 17.7 0.00 0.00 0.00 81 1010.8
20260505211804 14 276 11.3 20.9 0.00 0.00 0.00 81 1010.8
20260505210903 14 275 9.7 20.9 0.00 0.00 0.00 81 1010.9
20260505210219 14 284 8.0 16.1 0.00 0.00 0.00 81 1010.9
20260505205620 14 281 8.0 30.6 0.00 0.00 0.00 81 1011.0
20260505204504 14 270 9.7 30.6 0.00 0.00 0.00 80 1011.0
20260505203604 14 274 4.8 12.9 0.00 0.00 0.00 81 1011.0
20260505202704 14 278 4.8 14.5 0.00 0.00 0.00 81 1011.1
20260505201804 14 278 9.7 19.3 0.00 0.00 0.00 81 1011.1
20260505200903 14 285 6.4 12.9 0.00 0.00 0.00 81 1011.1
20260505200219 14 297 4.8 14.5 0.00 0.00 0.00 80 1011.1
20260505195621 14 289 6.4 14.5 0.00 0.00 0.00 80 1011.2
20260505194503 14 273 8.0 16.1 0.00 0.00 0.00 79 1011.3
20260505193603 14 273 9.7 17.7 0.00 0.00 0.00 79 1011.2
20260505192918 14 283 8.0 19.3 0.00 0.00 0.00 79 1011.2
20260505191804 14 289 8.0 16.1 0.00 0.00 0.00 79 1011.1
20260505190904 14 286 8.0 19.3 0.00 0.00 0.00 78 1011.1
20260505190004 14 278 9.7 24.1 0.00 0.00 0.00 78 1011.0
20260505185403 15 265 11.3 29.0 0.00 0.00 0.00 77 1011.1
20260505184503 14 274 8.0 29.0 0.00 0.00 0.00 77 1010.8
20260505183603 15 300 6.4 14.5 0.00 0.00 0.00 77 1010.8
20260505182704 15 286 9.7 17.7 0.00 0.00 0.00 76 1010.9
20260505181804 15 276 8.0 19.3 0.00 0.00 0.00 76 1010.9
20260505180903 15 285 11.3 22.5 0.00 0.00 0.00 75 1010.9
20260505180004 15 300 11.3 20.9 0.00 0.00 0.00 75 1010.9
20260505175403 15 295 11.3 22.5 0.00 0.00 0.00 75 1010.9
20260505174504 15 300 8.0 20.9 0.00 0.00 0.00 74 1010.9
20260505173603 15 302 4.8 11.3 0.00 0.00 0.00 73 1010.9
20260505172703 15 281 9.7 22.5 0.00 0.00 0.00 72 1011.0
20260505171803 15 273 9.7 22.5 0.00 0.00 0.00 72 1010.9
20260505171119 16 285 9.7 22.5 0.00 0.00 0.00 71 1010.9
20260505170004 16 283 12.9 22.5 0.00 0.00 0.00 70 1010.9